カタログに戻る

ARIANE 42P+ DEB

LostHEO
NORAD 34194·DEBRIS·🇫🇷 France

打ち上げ Oct 28, 1992 から Guiana Space Centre

Loading…

次のパス (今後24時間)

TLE

古いSource: Space-Track

元期: May 13, 2026, 16:12 UTC

1 34194U 92072AA  26133.67549614  .00510522  00000-0  13969+0 0  9990
2 34194   9.7578 136.2187 5532786 281.6012  23.9592  4.73059852196967

AllMySatでARIANE 42P+ DEBをリアルタイム追跡

Download on the App Store